Mount Airy, NC

7:08 AM EST on December 12, 2019 (GMT -0500)
Mount Airy-Surry County

Weather History for KMWK - October, 2019

Change the Weather History Date:

Monday, October 7, 2019

  Actual Average (WUND) Record (WUND)
Temperature  
Mean Temperature 70 °F -  
Max Temperature 80 °F - - (-1)
Min Temperature 61 °F - - (-1)
Cooling Degree Days 6    
Growing Degree Days 20 (Base 50)    
Moisture  
Dew Point 62 °F    
Average Humidity 78    
Maximum Humidity 92    
Minimum Humidity 50    
Precipitation  
Precipitation 0.00 in - - ()
Sea Level Pressure  
Sea Level Pressure 30.15 in    
Wind  
Wind Speed 1 mph ()    
Max Wind Speed 7 mph    
Max Gust Speed -    
Visibility 10.0 miles    
Events      
Averages and records for this station are not official NWS values.
T = Trace of Precipitation, MM = Missing Value Source: Averaged Metar Reports

Daily Weather History Graph

Daily Weather History Graph

Search for Another Location

Airport or City:

Astronomy

Oct. 07, 2019 Rise Set
Actual Time 7:22 AM EDT 6:57 PM EDT
Civil Twilight 6:56 AM EDT 7:23 PM EDT
Nautical Twilight 6:26 AM EDT 7:52 PM EDT
Astronomical Twilight 5:56 AM EDT 8:22 PM EDT
Moon 4:06 PM EDT (10/7) 1:25 AM EDT (10/7)
Length of Visible Light 12h 26m
Length of Day
11h 35m
Waxing Gibbous, 69% of the Moon is Illuminated
Oct 7
Waxing Gibbous
Oct 13
Full
Oct 21
Last Quarter
Oct 27
New
Nov 4
First Quarter

Hourly Weather History & Observations

Time (EDT) Temp. Heat Index Dew Point Humidity Pressure Visibility Wind Dir Wind Speed Gust Speed Precip Events Conditions
12:15 AM 63.7 °F - 60.8 °F 90% 30.26 in 10.0 mi Calm Calm - N/A   Scattered Clouds
12:35 AM 62.6 °F - 59.9 °F 91% 30.25 in 10.0 mi Calm Calm - N/A   Clear
12:55 AM 62.2 °F - 59.9 °F 92% 30.25 in 10.0 mi Calm Calm - N/A   Clear
1:15 AM 61.9 °F - 59.5 °F 92% 30.25 in 10.0 mi Calm Calm - N/A   Scattered Clouds
1:35 AM 62.6 °F - 60.1 °F 91% 30.24 in 10.0 mi Calm Calm - N/A   Overcast
1:55 AM 63.1 °F - 60.8 °F 92% 30.24 in 10.0 mi Calm Calm - N/A   Overcast
2:15 AM 63.7 °F - 61.0 °F 91% 30.24 in 10.0 mi Calm Calm - N/A   Overcast
2:35 AM 63.1 °F - 60.8 °F 92% 30.24 in 10.0 mi Calm Calm - N/A   Overcast
2:55 AM 63.5 °F - 61.0 °F 91% 30.23 in 10.0 mi Calm Calm - N/A   Overcast
3:15 AM 63.5 °F - 61.0 °F 91% 30.23 in 10.0 mi Calm Calm - N/A   Overcast
3:35 AM 64.0 °F - 61.2 °F 90% 30.22 in 10.0 mi Calm Calm - N/A   Overcast
3:55 AM 64.4 °F - 61.5 °F 90% 30.22 in 10.0 mi Calm Calm - N/A   Overcast
4:15 AM 65.3 °F - 61.9 °F 89% 30.22 in 10.0 mi Calm Calm - N/A   Overcast
4:35 AM 65.5 °F - 62.1 °F 89% 30.21 in 10.0 mi Calm Calm - N/A   Overcast
5:15 AM 65.5 °F - 62.1 °F 89% 30.20 in 10.0 mi Calm Calm - N/A   Overcast
5:35 AM 64.8 °F - 61.7 °F 90% 30.21 in 10.0 mi Calm Calm - N/A   Overcast
5:55 AM 64.8 °F - 61.7 °F 90% 30.21 in 10.0 mi Calm Calm - N/A   Overcast
6:15 AM 65.3 °F - 61.9 °F 89% 30.20 in 10.0 mi Calm Calm - N/A   Overcast
6:35 AM 65.5 °F - 62.1 °F 89% 30.20 in 10.0 mi Calm Calm - N/A   Overcast
6:55 AM 65.3 °F - 62.1 °F 89% 30.20 in 10.0 mi Calm Calm - N/A   Overcast
7:15 AM 65.5 °F - 62.2 °F 89% 30.20 in 10.0 mi Calm Calm - N/A   Overcast
7:35 AM 65.5 °F - 62.2 °F 89% 30.20 in 10.0 mi Calm Calm - N/A   Overcast
7:55 AM 65.5 °F - 62.1 °F 89% 30.20 in 10.0 mi Calm Calm - N/A   Overcast
8:15 AM 65.5 °F - 62.2 °F 89% 30.20 in 10.0 mi ESE 4.6 mph - N/A   Mostly Cloudy
8:35 AM 66.7 °F - 63.0 °F 88% 30.19 in 10.0 mi ESE 5.8 mph - N/A   Scattered Clouds
8:55 AM 68.4 °F - 63.7 °F 85% 30.19 in 10.0 mi SSE 4.6 mph - N/A   Clear
9:35 AM 68.5 °F - 63.3 °F 83% 30.19 in 10.0 mi SSE 5.8 mph - N/A   Scattered Clouds
10:15 AM 68.4 °F - 63.3 °F 84% 30.20 in 10.0 mi SSE 3.5 mph - N/A   Clear
10:35 AM 68.9 °F - 63.7 °F 83% 30.20 in 10.0 mi SE 4.6 mph - N/A   Clear
10:55 AM 69.1 °F - 63.9 °F 83% 30.20 in 10.0 mi South 3.5 mph - N/A   Scattered Clouds
11:15 AM 69.6 °F - 64.2 °F 83% 30.19 in 10.0 mi Calm Calm - N/A   Mostly Cloudy
11:55 AM 70.9 °F - 64.4 °F 80% 30.18 in 10.0 mi SE 5.8 mph - N/A   Scattered Clouds
12:15 PM 72.7 °F - 63.7 °F 73% 30.17 in 10.0 mi Calm Calm - N/A   Clear
12:35 PM 73.4 °F - 63.5 °F 71% 30.17 in 10.0 mi SE 4.6 mph - N/A   Mostly Cloudy
12:55 PM 72.9 °F - 63.3 °F 72% 30.17 in 10.0 mi SSE 3.5 mph - N/A   Mostly Cloudy
1:15 PM 73.6 °F - 63.5 °F 71% 30.16 in 10.0 mi Calm Calm - N/A   Mostly Cloudy
1:55 PM 75.0 °F - 62.2 °F 64% 30.13 in 10.0 mi South 3.5 mph - N/A   Mostly Cloudy
2:15 PM 77.4 °F - 63.5 °F 62% 30.12 in 10.0 mi SW 5.8 mph - N/A   Mostly Cloudy
2:35 PM 76.1 °F - 61.9 °F 61% 30.11 in 10.0 mi SSW 3.5 mph - N/A   Mostly Cloudy
2:55 PM 77.7 °F - 61.9 °F 58% 30.10 in 10.0 mi South 4.6 mph - N/A   Scattered Clouds
3:15 PM 77.9 °F - 61.7 °F 57% 30.09 in 10.0 mi SE 4.6 mph - N/A   Scattered Clouds
3:35 PM 77.4 °F - 61.2 °F 57% 30.09 in 10.0 mi SW 3.5 mph - N/A   Scattered Clouds
3:55 PM 79.0 °F - 60.8 °F 54% 30.08 in 10.0 mi SSE 6.9 mph - N/A   Clear
4:15 PM 77.4 °F - 60.8 °F 57% 30.07 in 10.0 mi SSE 4.6 mph - N/A   Scattered Clouds
4:35 PM 80.1 °F 80.9 °F 59.7 °F 50% 30.07 in 10.0 mi SSW 6.9 mph - N/A   Scattered Clouds
4:55 PM 78.4 °F - 59.2 °F 51% 30.07 in 10.0 mi South 3.5 mph - N/A   Scattered Clouds
5:15 PM 78.1 °F - 59.7 °F 53% 30.07 in 10.0 mi Calm Calm - N/A   Scattered Clouds
5:35 PM 78.3 °F - 60.4 °F 54% 30.07 in 10.0 mi South 3.5 mph - N/A   Mostly Cloudy
5:55 PM 77.4 °F - 60.8 °F 57% 30.07 in 10.0 mi SSE 4.6 mph - N/A   Mostly Cloudy
6:15 PM 76.6 °F - 61.5 °F 59% 30.07 in 10.0 mi Calm Calm - N/A   Mostly Cloudy
6:35 PM 76.1 °F - 61.7 °F 61% 30.07 in 10.0 mi Calm Calm - N/A   Mostly Cloudy
6:55 PM 75.2 °F - 62.6 °F 65% 30.07 in 10.0 mi Calm Calm - N/A   Scattered Clouds
7:15 PM 74.1 °F - 63.5 °F 69% 30.07 in 10.0 mi Calm Calm - N/A   Scattered Clouds
7:35 PM 72.7 °F - 63.7 °F 73% 30.08 in 10.0 mi Calm Calm - N/A   Scattered Clouds
7:55 PM 72.5 °F - 63.1 °F 72% 30.08 in 10.0 mi Calm Calm - N/A   Clear
8:15 PM 72.5 °F - 63.1 °F 72% 30.08 in 10.0 mi Calm Calm - N/A   Clear
8:35 PM 71.1 °F - 62.8 °F 75% 30.09 in 10.0 mi Calm Calm - N/A   Clear
8:55 PM 70.9 °F - 62.8 °F 75% 30.09 in 10.0 mi Calm Calm - N/A   Scattered Clouds
9:15 PM 69.6 °F - 63.7 °F 81% 30.10 in 10.0 mi Calm Calm - N/A   Mostly Cloudy
9:35 PM 68.9 °F - 63.5 °F 83% 30.10 in 10.0 mi Calm Calm - N/A   Overcast
9:55 PM 68.5 °F - 63.5 °F 84% 30.10 in 10.0 mi Calm Calm - N/A   Overcast
10:15 PM 69.8 °F - 63.5 °F 80% 30.11 in 10.0 mi Calm Calm - N/A   Overcast
10:35 PM 69.1 °F - 63.5 °F 82% 30.11 in 10.0 mi NNW 3.5 mph - N/A   Overcast
10:55 PM 69.8 °F - 63.7 °F 81% 30.11 in 10.0 mi Calm Calm - N/A   Overcast
11:15 PM 69.8 °F - 63.9 °F 81% 30.10 in 10.0 mi Calm Calm - N/A   Overcast
11:35 PM 69.3 °F - 63.7 °F 82% 30.11 in 10.0 mi Calm Calm - N/A   Overcast
11:55 PM 68.9 °F - 63.5 °F 83% 30.10 in 10.0 mi Calm Calm - N/A   Overcast